Location: Wells
(51.2093°N, 2.6446°W)
Time: 07:22:09
(UTC+01:00)

PCSat - Pass Details

Date: 17 March 2026
Orbit: 780 x 790 km, 67.1° (Epoch: 13 April)

Event Time Altitude Azimuth Distance (km) Brightness Sun altitude
Exits shadow 01:07:55 20° 350° (N) 1,769 11.8 -39.1°
Drops below altitude 10° 01:11:04 10° 25° (NNE) 2,365 12.7 -39.0°
Sets 01:14:07 0° 42° (NE) 3,297 13.6 -38.9°
